Wind_Speed
22 23 23 23 24 24 22 21 21 20 19 19 19 19 19 19 20 19 18 18 17 17 18 18 18 17 17 16 15 16 16 16 16 15 14 14 13 13 13 12 12 11 11 12 11 11 11 10 10
24 24 24 25 25 24 23 22 22 21 21 21 21 21 21 21 21 21 20 20 19 19 19 20 20 19 19 18 17 17 17 17 17 17 16 16 15 14 14 13 13 13 12 12 13 12 12 12 11
25 25 26 26 26 25 23 23 23 23 23 23 23 23 22 22 21 21 21 21 21 20 21 21 21 21 20 19 19 18 18 18 19 18 18 17 16 15 15 15 14 14 13 13 14 14 13 13 13
25 26 27 27 26 25 24 24 25 25 25 24 25 25 24 23 23 22 21 21 21 21 21 21 22 22 21 21 20 20 19 19 20 19 19 18 18 17 16 16 16 15 15 14 15 15 15 14 13
27 27 27 27 26 25 25 25 25 25 25 25 26 26 25 25 24 24 23 23 23 22 22 22 22 22 22 22 22 21 21 20 21 21 20 20 19 18 18 17 17 17 16 16 16 16 16 15 15
28 28 28 27 26 26 26 26 25 25 25 26 26 26 25 25 25 25 25 24 24 25 25 24 24 24 23 23 23 23 23 22 22 23 22 21 21 20 19 19 19 18 17 17 17 18 17 16 16
28 28 28 28 27 27 26 26 26 26 25 25 26 26 26 26 26 26 26 26 26 26 26 26 26 25 25 25 24 24 24 24 24 24 24 23 22 22 21 21 20 19 18 18 18 18 17 17 17
28 28 28 28 28 27 27 27 27 26 26 26 26 26 26 27 27 27 27 28 28 28 28 28 28 27 27 26 26 25 26 25 25 25 25 25 24 23 23 22 22 21 20 19 19 19 18 18 17
28 29 28 28 29 28 28 28 28 28 27 27 27 26 26 28 28 29 29 29 29 29 29 29 29 29 29 28 28 28 27 27 26 26 26 26 25 25 24 24 23 23 22 21 20 19 19 18 18
29 29 28 29 29 29 29 29 29 29 29 29 28 27 27 28 28 29 30 30 29 29 30 30 30 30 30 30 30 30 29 28 28 27 27 27 27 27 26 26 25 24 23 22 21 20 20 19 19
29 29 29 29 30 30 30 30 30 31 30 30 29 29 28 28 28 29 30 31 31 31 31 31 32 32 31 31 31 31 31 31 31 30 29 28 28 28 28 27 26 25 24 23 22 21 21 20 19
30 29 30 30 31 31 31 31 31 32 32 32 31 30 29 29 29 30 30 31 32 33 33 33 33 33 33 33 33 33 33 33 33 32 30 30 29 29 29 28 28 26 25 25 23 22 22 21 20
31 30 31 31 31 32 32 32 32 32 33 33 33 31 30 30 30 31 31 31 32 33 34 33 34 35 35 35 35 35 35 34 34 34 32 31 31 31 30 29 29 28 27 26 25 24 23 22 21
33 33 32 32 33 33 33 32 32 31 34 34 34 33 32 32 32 32 32 32 33 33 35 35 34 35 36 36 36 37 37 36 36 35 34 33 32 31 31 30 31 30 29 28 27 26 26 24 23
35 35 34 33 34 34 34 33 32 32 34 34 33 33 33 33 33 33 33 32 32 33 34 35 35 35 36 36 36 37 38 37 37 36 36 35 34 33 32 32 32 32 32 31 30 29 28 27 26
37 37 36 34 35 35 36 33 32 34 34 34 34 33 33 33 33 33 34 33 34 35 36 37 37 36 36 37 37 38 38 38 38 37 37 37 36 36 34 33 34 33 33 33 32 31 30 29 29
39 38 37 36 36 36 37 34 33 35 35 35 34 34 34 34 33 34 34 35 35 36 37 38 38 37 37 37 38 38 39 39 39 38 37 38 38 37 36 35 35 35 34 34 34 33 32 31 31
39 39 39 38 38 38 39 37 35 37 37 35 35 35 35 34 34 34 35 36 36 37 38 39 40 39 39 39 39 39 39 40 40 39 39 39 39 39 38 36 36 37 36 35 35 35 34 33 33
41 41 41 40 40 41 41 39 37 38 38 37 36 36 35 35 35 35 36 36 37 37 38 39 40 40 40 40 39 39 39 40 41 42 41 41 40 41 41 40 39 39 38 38 37 36 36 35 35
44 43 42 42 43 43 43 41 39 39 39 38 38 37 37 36 36 36 36 37 37 37 38 38 39 40 40 41 41 40 39 40 41 42 42 43 42 42 42 41 40 40 40 39 39 39 38 38 37
46 45 44 44 44 45 45 44 41 39 40 40 39 38 38 38 38 37 37 37 38 38 38 39 39 40 41 41 43 42 41 41 42 42 43 43 43 43 42 42 42 42 41 40 40 41 41 40 39
47 45 45 46 46 46 46 46 41 40 40 40 39 38 38 38 39 38 38 38 38 39 39 40 40 41 41 42 44 43 42 42 42 43 44 43 43 43 42 42 43 42 42 42 42 42 41 42 41
47 46 46 47 47 48 46 47 42 41 40 40 39 39 39 39 39 39 39 39 39 39 39 40 41 41 42 42 44 45 44 43 43 44 45 45 44 43 43 43 42 43 43 43 43 43 42 42 42
48 47 47 48 48 50 45 46 45 41 40 39 39 39 38 38 38 39 38 38 39 39 39 39 40 42 42 42 43 44 44 43 43 44 45 45 45 44 42 43 43 43 44 44 44 43 43 42 42
47 47 47 48 50 50 45 46 45 40 38 38 38 37 37 36 37 37 38 38 38 38 38 39 40 41 42 43 43 44 44 42 41 42 44 45 45 44 43 43 42 42 44 45 45 45 44 43 43
45 46 47 49 49 48 46 46 44 41 39 38 37 36 36 36 36 36 36 36 36 37 38 38 39 40 42 43 43 45 44 42 41 41 43 43 44 43 43 43 42 41 43 44 45 45 45 44 44
44 46 46 47 49 49 48 46 43 40 38 37 37 36 36 36 36 35 35 36 36 36 37 38 38 40 41 43 44 46 44 41 40 41 43 43 43 43 44 45 44 43 43 44 45 45 45 45 44
43 42 43 46 48 48 48 46 43 40 38 37 36 36 35 35 35 35 35 36 36 36 37 37 38 39 40 41 45 45 44 42 41 41 43 43 43 43 43 45 45 43 42 42 43 45 45 45 45
43 42 43 45 47 47 48 46 43 41 39 37 36 36 36 35 35 35 35 36 36 35 35 36 37 38 39 41 43 44 44 43 42 42 42 42 42 42 42 44 44 43 43 43 44 45 45 45 45
41 42 42 44 45 46 46 46 43 42 41 39 37 36 36 36 36 35 36 36 36 36 36 36 36 36 38 41 42 43 44 44 44 44 44 45 44 43 43 44 44 43 42 43 44 45 46 46 45
Wind_Direction
250 249 249 249 249 249 249 248 248 248 248 248 248 247 247 248 247 247 247 245 243 242 241 240 238 237 237 237 236 234 233 233 232 231 231 232 234 235 233 234 235 235 235 235 235 235 235 234 234
250 250 249 249 250 250 249 248 247 248 250 250 251 251 250 250 249 247 246 245 244 243 242 240 238 237 237 237 238 236 235 233 231 231 232 233 234 234 234 234 236 236 237 238 238 238 238 237 236
251 251 251 251 251 252 250 247 248 250 251 252 253 252 251 250 248 246 244 243 243 242 241 240 238 237 236 237 237 237 236 234 233 233 233 234 234 234 234 236 236 237 238 239 240 240 239 238 238
252 252 252 252 252 251 250 249 250 251 252 253 253 253 251 249 248 246 245 243 243 242 240 239 238 237 237 237 236 236 235 235 234 235 235 235 236 236 236 237 237 239 240 241 242 243 241 240 239
252 252 252 252 252 251 250 250 251 251 252 253 253 253 252 250 248 246 245 244 244 243 240 240 239 237 237 238 237 237 236 237 236 236 236 237 237 238 240 239 240 241 243 243 243 244 245 242 240
251 251 251 252 251 251 250 251 251 252 252 252 252 252 252 250 248 246 244 243 244 244 244 242 240 239 238 238 239 238 238 238 238 237 238 238 239 239 241 242 243 244 244 244 243 242 242 244 242
252 251 251 251 250 250 250 251 251 252 253 253 252 251 251 250 248 246 244 244 243 244 244 242 240 241 240 239 239 239 239 239 239 238 239 240 240 240 241 243 244 243 243 243 243 242 241 242 244
252 251 250 249 249 248 249 250 252 252 253 253 253 252 251 250 249 248 246 246 245 244 244 243 241 241 240 240 240 241 240 239 239 240 239 240 241 242 241 242 243 244 244 243 243 242 242 243 245
252 251 250 249 249 249 249 250 251 252 253 253 253 254 252 250 250 249 249 248 247 245 244 244 243 242 242 241 241 241 242 241 240 240 240 241 241 242 241 241 243 244 245 244 243 242 242 243 245
252 252 251 250 250 250 250 250 250 251 252 254 254 254 253 252 250 250 250 248 248 246 244 242 242 242 242 242 242 242 241 241 241 241 241 240 242 242 242 242 243 244 244 244 245 244 243 244 246
253 253 251 251 251 251 251 251 251 251 252 253 253 254 254 254 253 252 250 248 248 247 246 243 241 242 242 241 241 241 241 240 240 241 242 240 241 241 242 243 243 243 244 244 246 246 244 245 247
253 252 252 252 253 253 252 251 251 252 253 254 255 255 254 255 254 253 253 251 249 247 246 245 242 242 242 241 240 241 240 240 240 240 240 241 240 241 242 243 242 242 243 244 245 246 245 245 245
253 251 252 252 253 253 254 253 253 253 254 255 256 256 255 256 257 255 253 252 251 249 246 245 244 243 243 242 242 241 240 240 240 238 239 240 240 240 242 244 242 241 242 243 245 245 246 245 245
253 252 252 253 254 254 254 254 254 254 254 254 256 256 257 257 256 255 253 254 253 250 247 246 246 245 243 243 243 241 240 240 240 238 238 239 240 240 241 242 242 242 242 243 245 244 244 245 247
253 253 252 253 254 254 254 254 255 255 255 256 256 256 257 256 256 255 254 253 252 249 247 247 247 246 245 244 243 241 240 241 241 239 239 239 239 239 241 241 242 242 242 242 243 242 243 246 247
254 253 253 253 254 254 255 254 255 255 255 256 256 256 256 255 255 254 253 252 252 251 249 248 249 248 246 244 243 242 240 241 241 239 239 239 240 239 240 241 242 242 242 241 241 242 244 245 247
253 254 254 253 254 255 255 255 254 256 255 255 256 257 256 255 255 254 253 252 252 252 251 250 249 249 246 244 243 242 241 241 240 239 239 239 240 239 240 241 242 242 243 242 241 242 244 246 248
256 255 255 255 256 256 256 255 253 255 255 255 256 257 257 255 255 254 253 252 252 252 252 251 250 250 247 244 242 243 243 242 239 238 239 239 240 240 240 241 241 241 241 242 243 244 244 246 249
256 256 255 255 256 256 256 255 254 255 256 257 257 257 258 256 255 254 253 253 253 253 252 251 250 250 249 245 243 243 243 243 241 238 238 239 239 240 240 241 241 240 240 242 243 245 245 246 249
256 256 256 256 256 257 256 255 254 254 256 257 257 258 258 257 255 254 254 253 253 253 253 252 250 251 249 245 242 243 243 243 241 239 239 239 240 240 240 241 241 239 240 241 242 244 245 246 248
255 256 257 257 256 257 257 255 254 254 255 256 256 256 257 256 255 255 254 254 254 253 253 252 250 249 249 247 243 244 244 243 241 239 239 239 240 240 239 241 241 239 240 241 242 243 245 246 249
254 255 256 256 256 256 256 257 253 254 255 256 256 256 255 255 255 255 254 255 254 254 253 252 250 249 248 246 244 243 243 242 240 239 239 238 239 239 241 241 242 241 241 241 242 243 245 246 248
253 253 253 253 254 255 255 257 254 253 254 255 256 256 256 256 256 255 255 255 254 253 253 251 250 249 248 246 244 243 242 242 240 239 238 238 238 240 242 242 242 242 242 242 243 243 244 245 248
249 249 250 251 252 253 254 257 256 253 255 256 256 256 256 257 256 255 255 255 253 252 251 250 249 248 247 246 245 243 241 242 241 239 237 237 237 239 241 242 242 242 242 243 244 245 245 246 248
246 247 248 249 250 253 254 255 256 256 256 256 256 256 255 255 255 254 254 252 251 251 250 250 249 247 247 246 244 242 240 240 241 240 238 237 237 238 239 242 242 242 242 243 244 245 246 247 249
246 246 247 250 253 254 254 254 255 256 255 255 255 254 254 254 253 253 252 250 250 249 249 249 248 247 245 245 243 240 240 241 241 240 237 236 236 237 240 241 242 243 244 244 244 243 245 247 250
244 244 246 249 251 252 253 253 253 254 255 254 255 254 254 254 253 252 250 250 250 249 249 249 249 248 247 244 242 239 239 241 241 239 237 236 236 237 240 240 241 243 244 245 244 244 245 248 250
244 245 244 245 248 250 251 252 252 253 254 253 254 253 253 254 254 252 251 249 249 249 249 249 250 250 248 245 241 236 239 241 239 238 237 238 238 241 244 242 242 243 245 246 246 246 246 248 250
242 241 242 245 247 249 251 252 252 254 255 254 254 253 253 254 255 253 251 250 250 250 249 250 249 248 247 245 241 240 241 240 238 237 237 237 239 241 243 243 243 245 247 247 247 247 248 250 252
243 243 242 243 246 248 251 252 252 253 254 254 253 252 253 254 255 255 253 252 252 251 250 249 247 246 245 242 240 241 242 240 238 238 239 240 240 241 242 242 242 245 246 247 247 248 249 251 252
Height
5823 5824 5825 5827 5828 5829 5830 5832 5833 5834 5835 5836 5836 5837 5838 5839 5841 5844 5844 5844 5845 5846 5847 5848 5850 5851 5852 5853 5854 5855 5857 5858 5860 5861 5863 5864 5865 5866 5867 5868 5869 5870 5870 5871 5872 5872 5873 5874 5874
5818 5819 5821 5822 5822 5824 5827 5828 5829 5830 5831 5831 5832 5833 5834 5835 5836 5838 5838 5840 5841 5843 5844 5845 5846 5848 5849 5850 5852 5853 5855 5856 5857 5859 5860 5862 5863 5864 5865 5866 5867 5868 5868 5869 5870 5871 5871 5872 5873
5813 5814 5816 5817 5817 5820 5822 5823 5824 5824 5825 5826 5827 5827 5829 5830 5831 5832 5834 5835 5837 5839 5840 5841 5843 5844 5846 5847 5849 5850 5852 5853 5855 5856 5858 5859 5861 5862 5863 5864 5865 5866 5866 5867 5868 5869 5869 5870 5871
5809 5810 5811 5812 5813 5815 5817 5818 5818 5819 5820 5821 5821 5822 5823 5825 5826 5827 5829 5831 5832 5834 5835 5837 5839 5841 5842 5844 5846 5847 5848 5850 5852 5853 5855 5856 5858 5859 5860 5861 5862 5863 5864 5865 5865 5866 5867 5868 5869
5803 5804 5805 5806 5808 5810 5811 5812 5813 5814 5815 5815 5816 5817 5818 5820 5820 5822 5824 5826 5827 5829 5831 5833 5834 5836 5838 5840 5842 5844 5845 5847 5848 5850 5851 5853 5855 5856 5857 5858 5859 5860 5861 5862 5862 5863 5864 5865 5867
5798 5799 5800 5801 5803 5804 5805 5806 5807 5808 5809 5810 5810 5811 5813 5814 5815 5817 5819 5821 5822 5824 5826 5828 5830 5832 5834 5836 5838 5840 5841 5843 5845 5846 5848 5850 5851 5853 5854 5855 5856 5857 5857 5858 5859 5860 5861 5863 5864
5792 5793 5794 5795 5797 5798 5800 5800 5801 5802 5803 5804 5805 5806 5807 5808 5809 5811 5813 5815 5817 5819 5821 5823 5825 5827 5829 5831 5834 5835 5837 5839 5841 5842 5844 5846 5847 5849 5850 5851 5852 5853 5854 5855 5856 5857 5858 5860 5861
5785 5787 5788 5789 5790 5792 5794 5794 5795 5796 5797 5798 5799 5800 5802 5802 5804 5805 5807 5809 5811 5813 5815 5817 5819 5821 5824 5826 5828 5830 5832 5834 5836 5838 5839 5841 5843 5844 5846 5847 5848 5849 5850 5851 5852 5853 5855 5856 5858
5779 5781 5782 5783 5784 5786 5787 5788 5789 5790 5791 5792 5793 5795 5796 5796 5798 5799 5801 5803 5804 5807 5809 5811 5813 5815 5818 5820 5823 5825 5827 5829 5831 5833 5835 5836 5838 5840 5841 5843 5844 5845 5847 5848 5849 5850 5851 5853 5854
5772 5774 5776 5777 5778 5780 5781 5782 5783 5784 5785 5785 5787 5788 5789 5790 5792 5793 5794 5796 5798 5800 5802 5804 5807 5809 5811 5814 5816 5819 5821 5823 5825 5827 5829 5831 5833 5835 5836 5838 5840 5841 5842 5844 5845 5846 5848 5849 5850
5766 5768 5769 5770 5771 5772 5773 5775 5776 5777 5778 5779 5780 5781 5782 5784 5785 5786 5788 5789 5790 5793 5795 5797 5799 5801 5804 5807 5809 5812 5814 5817 5819 5821 5823 5826 5828 5829 5831 5833 5835 5836 5838 5839 5841 5842 5844 5845 5847
5759 5761 5761 5762 5763 5764 5766 5767 5769 5770 5771 5772 5773 5774 5775 5777 5778 5779 5780 5781 5783 5785 5787 5789 5792 5794 5797 5799 5802 5804 5807 5810 5812 5815 5817 5819 5822 5824 5826 5828 5829 5831 5833 5835 5836 5838 5840 5841 5843
5752 5753 5754 5755 5756 5757 5758 5759 5761 5763 5763 5764 5765 5766 5768 5769 5770 5771 5772 5774 5775 5777 5779 5781 5784 5786 5789 5791 5794 5797 5799 5802 5804 5807 5810 5813 5816 5818 5820 5822 5824 5826 5828 5830 5832 5833 5835 5837 5839
5744 5745 5746 5747 5748 5749 5750 5751 5753 5756 5755 5756 5758 5759 5760 5761 5762 5763 5765 5766 5767 5769 5771 5773 5775 5778 5781 5783 5786 5788 5791 5794 5796 5799 5803 5806 5809 5812 5814 5816 5818 5820 5823 5825 5827 5828 5831 5832 5834
5735 5736 5738 5739 5739 5741 5742 5744 5746 5747 5747 5748 5750 5751 5752 5753 5754 5755 5757 5758 5759 5761 5763 5765 5768 5770 5773 5775 5777 5780 5783 5786 5789 5792 5795 5798 5802 5805 5808 5810 5812 5815 5817 5819 5821 5823 5825 5827 5829
5725 5727 5729 5731 5731 5732 5734 5737 5738 5738 5738 5740 5741 5742 5743 5744 5746 5747 5748 5750 5751 5753 5755 5757 5759 5761 5764 5766 5769 5771 5774 5777 5780 5784 5787 5791 5794 5797 5800 5803 5806 5808 5810 5812 5815 5817 5820 5822 5824
5715 5717 5719 5722 5722 5722 5723 5727 5730 5728 5730 5731 5732 5733 5734 5736 5737 5739 5740 5741 5743 5745 5747 5749 5750 5753 5755 5757 5759 5762 5765 5769 5772 5776 5779 5783 5786 5790 5793 5796 5799 5801 5804 5806 5809 5811 5813 5816 5818
5706 5707 5709 5711 5712 5713 5714 5717 5720 5719 5720 5722 5724 5724 5726 5727 5729 5730 5731 5732 5734 5736 5738 5740 5741 5744 5746 5748 5750 5753 5756 5760 5764 5767 5771 5775 5778 5782 5785 5788 5791 5794 5797 5799 5802 5804 5807 5809 5811
5694 5696 5698 5700 5701 5701 5703 5706 5709 5709 5711 5713 5714 5715 5717 5718 5720 5721 5722 5723 5725 5727 5728 5730 5732 5734 5737 5739 5741 5743 5747 5750 5754 5758 5762 5766 5769 5773 5777 5780 5783 5786 5789 5792 5795 5797 5800 5802 5804
5682 5684 5687 5689 5689 5690 5692 5695 5698 5700 5701 5703 5704 5706 5707 5708 5710 5711 5712 5713 5715 5717 5719 5721 5723 5725 5727 5730 5732 5734 5737 5740 5745 5749 5753 5757 5760 5764 5768 5771 5774 5777 5781 5784 5787 5789 5792 5794 5796
5670 5673 5676 5677 5677 5678 5680 5683 5688 5690 5690 5692 5694 5696 5697 5698 5700 5701 5702 5704 5705 5707 5709 5711 5712 5715 5717 5720 5722 5725 5728 5731 5735 5740 5744 5748 5751 5755 5759 5762 5765 5768 5771 5775 5778 5781 5784 5787 5789
5658 5662 5663 5663 5664 5666 5668 5669 5677 5679 5680 5682 5684 5685 5687 5688 5689 5691 5692 5693 5695 5697 5698 5700 5702 5704 5706 5709 5712 5715 5719 5722 5726 5730 5734 5738 5742 5746 5750 5753 5756 5759 5762 5766 5769 5772 5776 5778 5780
5646 5648 5649 5650 5651 5653 5656 5657 5665 5667 5669 5671 5673 5674 5676 5677 5679 5680 5682 5683 5684 5685 5687 5689 5691 5693 5696 5699 5701 5705 5708 5712 5716 5720 5724 5728 5733 5737 5740 5744 5747 5750 5753 5757 5760 5763 5766 5769 5772
5631 5634 5636 5636 5637 5640 5647 5646 5650 5656 5659 5660 5662 5664 5665 5667 5668 5669 5671 5671 5673 5674 5676 5678 5680 5683 5685 5688 5691 5694 5698 5702 5705 5709 5714 5718 5723 5727 5731 5734 5737 5741 5744 5747 5751 5754 5757 5760 5763
5617 5621 5622 5623 5624 5628 5635 5634 5639 5645 5648 5649 5651 5653 5654 5656 5657 5658 5660 5661 5662 5663 5665 5667 5670 5673 5675 5678 5681 5684 5688 5692 5695 5699 5704 5708 5713 5718 5722 5725 5729 5732 5735 5739 5742 5745 5748 5751 5753
5605 5608 5610 5612 5614 5619 5621 5623 5630 5634 5636 5638 5640 5642 5644 5646 5647 5648 5649 5650 5652 5653 5655 5657 5659 5662 5665 5668 5672 5675 5679 5682 5686 5690 5695 5699 5704 5709 5713 5716 5720 5723 5726 5729 5732 5736 5739 5741 5744
5592 5595 5599 5601 5602 5605 5607 5612 5619 5622 5624 5627 5629 5631 5633 5635 5637 5638 5639 5640 5642 5644 5646 5648 5650 5652 5654 5658 5662 5665 5669 5673 5677 5681 5685 5689 5695 5699 5703 5707 5710 5714 5717 5719 5723 5726 5729 5732 5734
5580 5584 5586 5587 5589 5592 5596 5601 5608 5612 5614 5616 5618 5620 5622 5624 5626 5628 5629 5631 5632 5633 5635 5637 5639 5642 5645 5648 5651 5656 5660 5663 5667 5672 5676 5680 5685 5690 5693 5697 5701 5704 5707 5710 5713 5717 5720 5722 5725
5568 5571 5573 5576 5579 5582 5585 5593 5597 5600 5603 5605 5608 5609 5612 5614 5616 5617 5619 5620 5622 5623 5625 5627 5630 5632 5635 5638 5642 5646 5650 5654 5658 5662 5666 5671 5675 5679 5683 5686 5691 5694 5697 5700 5703 5707 5710 5713 5715
5555 5559 5563 5566 5568 5572 5574 5582 5586 5589 5591 5594 5596 5599 5601 5603 5605 5607 5608 5610 5612 5613 5615 5617 5620 5623 5626 5629 5633 5637 5641 5644 5648 5652 5656 5661 5665 5669 5673 5677 5681 5684 5687 5691 5694 5697 5700 5702 5704